Temperature
17 17 17 17 17 17 17 17 16 16 16 16 16 16 16 16 16 16 16 16 16 16 15 15 15 15 15 15 15 15 15 15 15 15 14 14 14 14
16 16 17 17 17 17 16 16 16 16 16 16 16 16 16 16 16 16 16 15 15 15 15 15 15 15 14 14 14 14 14 14 14 14 14 14 14 14
16 16 16 16 16 16 16 16 16 16 15 15 15 15 15 15 15 15 15 15 15 14 14 14 14 14 14 14 14 14 14 14 14 13 13 13 13 13
16 16 16 16 16 16 16 16 15 15 15 15 15 14 15 15 15 14 14 14 14 14 14 14 14 14 14 13 13 13 13 13 13 13 13 13 12 12
15 16 16 16 15 15 15 15 15 15 15 14 14 14 14 14 14 14 14 13 13 13 13 13 13 13 13 13 13 13 13 12 12 12 12 12 12 12
15 15 15 15 15 15 15 15 15 14 14 14 14 13 13 13 13 13 13 13 13 13 13 12 12 12 12 12 12 12 12 12 12 11 11 11 11 11
15 14 14 14 14 14 14 14 14 14 13 13 13 13 13 12 12 12 12 12 12 12 12 12 12 11 11 11 11 11 11 11 11 11 11 11 10 10
14 14 14 14 14 14 13 13 13 13 13 13 12 12 12 12 12 12 12 12 11 11 11 11 11 11 11 10 10 10 10 10 10 10 10 10 10 10
14 14 13 13 13 13 13 13 13 12 12 12 12 12 11 11 11 11 11 11 11 10 11 10 10 10 10 10 10 9 9 9 9 9 9 9 9 9
13 13 13 13 12 12 12 12 12 12 12 11 11 11 11 11 11 11 11 11 10 10 10 10 9 9 9 9 9 9 9 9 8 8 8 8 8 8
13 12 12 12 12 12 12 12 12 11 11 11 11 11 11 10 10 10 10 10 10 10 10 9 9 9 9 8 8 8 8 8 8 8 8 8 8 8
12 12 11 11 11 11 11 11 11 11 10 10 10 10 10 10 10 10 10 10 10 9 9 9 9 8 8 8 8 8 8 8 7 7 7 7 7 7
12 11 11 11 11 11 11 11 10 10 10 10 10 10 10 10 10 9 9 9 9 9 9 9 8 8 8 8 7 7 7 7 7 7 7 7 7 7
11 11 11 10 10 10 10 10 10 10 10 10 10 9 9 9 9 9 9 9 9 8 8 8 8 8 8 7 7 7 7 7 7 7 7 6 6 6
11 11 10 10 10 10 10 10 10 10 9 9 9 9 9 9 9 9 8 8 8 8 8 8 8 8 7 7 7 7 7 7 7 6 6 6 6 6
10 10 10 10 10 9 9 9 9 9 9 9 9 9 8 8 8 8 8 8 8 8 8 8 7 7 7 7 7 7 7 6 6 6 6 6 6 5
10 10 10 9 9 9 9 9 9 9 8 8 8 8 8 8 8 8 8 8 7 7 7 7 7 7 7 7 7 6 6 6 6 6 6 6 5 5
10 10 9 9 9 9 9 8 8 8 8 8 8 8 7 7 7 7 7 7 7 7 7 7 7 7 7 6 6 6 6 6 6 6 5 5 5 5
9 9 9 9 8 8 8 8 8 7 7 7 7 7 7 7 7 7 7 7 7 6 6 6 6 6 6 6 6 6 6 6 5 5 5 5 5 5
9 9 8 8 8 8 8 7 7 7 7 7 7 7 7 7 7 7 6 6 6 6 6 6 6 6 6 6 6 6 6 5 5 5 5 5 5 5
8 8 8 8 8 7 7 7 7 7 7 7 7 6 6 6 6 6 6 6 6 6 6 6 6 6 5 5 5 5 5 5 5 5 5 5 5 5
8 8 8 8 7 7 7 7 7 7 6 6 6 6 6 6 6 6 6 6 6 6 6 5 5 5 5 5 5 5 5 5 5 5 5 5 4 4
8 8 7 7 7 7 7 7 6 6 6 6 6 6 6 6 6 5 5 5 5 5 5 5 5 5 5 5 5 5 5 5 5 5 5 4 4 4
Wind_Speed
2 3 3 2 2 3 3 3 3 3 3 2 1 1 0 0 1 2 4 5 8 9 10 10 9 8 8 8 8 8 8 9 9 10 10 10 10 10
1 1 2 2 1 1 1 2 2 3 3 1 1 1 1 1 2 1 2 2 4 7 8 8 8 8 7 7 6 6 7 7 7 8 8 8 8 9
1 0 1 1 1 1 0 0 1 2 3 2 1 1 1 1 2 3 2 2 1 3 5 6 6 6 6 5 5 4 4 4 5 5 5 6 6 7
2 2 2 1 2 1 1 1 0 1 2 1 1 1 1 1 2 2 3 3 3 3 2 3 3 2 2 1 1 1 2 2 3 3 3 3 4 4
4 4 3 4 3 3 2 2 1 2 2 2 0 1 1 2 2 3 4 3 4 5 6 6 5 4 4 4 3 3 2 2 2 1 1 1 1 2
5 5 5 5 4 4 4 3 3 3 3 2 2 2 2 2 2 2 3 3 3 5 7 7 8 9 8 7 6 6 6 6 5 5 4 3 2 1
6 6 7 8 9 7 5 4 4 4 4 4 3 3 3 2 2 1 2 2 3 3 4 5 5 5 7 8 7 7 8 8 9 9 9 9 8 7
6 6 7 8 10 12 12 11 8 5 4 3 3 3 2 2 2 2 2 2 2 3 3 3 3 3 3 5 7 8 8 8 9 9 10 10 9 9
6 6 6 7 8 7 9 11 11 11 8 3 4 2 1 1 2 3 3 3 1 1 2 2 3 3 3 5 6 7 8 8 7 7 8 9 8 7
7 6 6 6 7 7 8 8 8 8 8 6 4 2 2 2 2 2 2 3 3 3 2 2 2 2 3 5 7 8 7 7 7 7 6 6 7 7
8 8 7 7 9 9 8 7 7 6 9 11 10 8 8 8 6 4 4 4 3 3 3 2 1 1 2 3 5 7 6 7 7 6 6 5 5 5
6 7 10 9 10 10 7 6 6 4 5 6 8 9 9 9 9 4 3 3 2 1 2 2 1 1 2 2 2 3 4 5 6 6 6 5 5 4
5 5 5 10 11 10 8 6 5 4 5 5 5 6 6 6 6 6 4 3 3 0 1 1 1 1 1 1 2 2 2 2 4 4 4 4 4 3
4 3 4 9 10 10 8 8 9 7 5 5 5 5 5 4 4 5 7 6 3 1 1 2 2 1 1 1 2 2 1 2 2 2 3 3 4 4
4 6 8 9 9 8 10 11 8 6 5 5 4 3 2 3 3 4 7 8 8 8 6 4 2 2 2 1 0 1 1 2 2 1 1 1 1 2
5 6 9 10 9 8 8 7 6 5 4 3 2 3 3 4 5 4 4 4 4 5 8 8 5 3 2 1 1 1 1 1 2 1 1 1 2 1
4 4 5 5 6 5 5 6 6 6 5 4 4 4 4 4 4 3 3 3 4 3 4 5 7 6 3 2 2 1 2 2 1 1 1 2 2 2
6 5 4 4 4 4 4 5 5 5 4 4 4 4 3 3 3 4 3 3 3 2 2 3 3 4 5 4 1 0 1 1 2 2 1 1 2 3
6 4 3 3 3 3 3 3 3 3 3 4 4 3 3 3 3 3 3 3 3 2 2 2 2 2 2 3 5 3 0 1 2 2 1 0 2 3
3 3 3 3 3 3 3 2 3 4 4 4 4 4 4 3 3 3 3 3 2 2 3 3 2 0 1 2 2 3 4 1 0 1 1 1 2 3
3 3 3 3 3 3 3 3 4 4 4 4 4 4 3 3 3 3 3 4 3 2 2 3 4 4 0 1 2 3 4 5 2 1 1 0 1 2
4 4 3 3 3 3 3 4 4 4 4 4 4 4 3 3 3 3 3 2 2 2 2 3 4 3 2 1 1 3 3 4 6 5 2 3 3 3
4 4 3 3 3 3 4 4 5 3 3 3 3 3 3 3 3 3 3 3 2 3 3 4 4 3 2 1 1 2 3 3 3 3 4 8 7 7
Wind_Direction
249 256 253 251 232 220 205 195 200 240 264 254 276 328 334 161 225 202 208 211 209 209 213 217 219 224 228 229 230 233 237 241 244 245 245 244 244 247
278 279 274 281 276 263 217 215 201 206 238 258 259 299 353 39 38 105 172 199 204 205 210 212 215 219 221 223 228 232 237 243 248 248 245 245 249 251
7 346 302 312 341 334 291 157 168 173 213 267 314 325 31 34 40 58 87 112 163 202 205 207 209 210 209 214 222 236 253 265 267 261 253 251 251 250
46 45 23 38 41 30 58 71 101 153 173 214 336 357 7 11 38 45 57 64 66 70 120 157 165 160 167 184 221 248 274 287 285 276 269 257 252 250
58 55 43 55 48 42 55 56 53 63 95 134 49 10 14 21 36 48 54 50 63 59 65 67 77 87 89 80 68 54 42 22 1 338 312 276 269 271
54 49 48 56 54 49 53 49 63 69 73 87 67 36 32 21 49 51 45 38 45 48 55 61 65 66 65 66 65 63 60 56 53 50 47 45 36 29
52 49 55 62 60 55 58 50 60 67 69 72 61 49 36 32 25 16 64 46 43 42 49 46 53 52 49 50 52 60 69 69 66 65 65 64 61 60
57 50 53 52 58 59 62 62 65 76 80 77 64 64 33 18 18 54 71 65 38 11 56 40 39 40 35 45 49 56 59 61 65 66 67 68 67 65
54 50 55 51 53 57 56 54 52 52 63 95 86 64 38 2 53 63 69 78 72 339 75 45 22 29 27 41 47 53 57 59 62 63 62 60 60 60
55 54 56 48 53 62 65 59 50 44 48 59 75 61 60 47 81 104 117 82 47 23 58 70 13 18 19 28 39 46 55 55 51 48 51 56 64 66
55 51 55 59 54 64 68 63 50 36 45 55 59 58 57 59 70 78 69 78 50 1 15 73 32 15 10 7 26 42 51 50 43 40 42 46 55 61
54 45 49 60 58 62 66 66 56 29 31 39 41 41 42 43 46 69 104 102 88 15 345 56 40 53 25 343 358 17 33 33 30 30 32 34 43 58
67 49 40 53 58 58 61 63 62 61 51 55 48 35 29 29 29 36 58 103 105 44 288 83 67 54 97 316 327 334 358 3 13 12 8 20 41 72
83 60 49 55 55 52 54 55 60 64 59 56 48 35 28 20 13 25 39 50 66 118 338 97 107 117 101 41 317 321 330 338 5 9 14 26 39 53
79 72 62 57 52 48 50 56 57 59 60 59 50 28 5 0 18 27 29 37 38 35 35 60 95 99 100 127 289 319 330 328 346 23 34 42 42 59
66 56 55 56 55 47 42 43 47 58 73 67 42 17 17 27 27 27 33 28 34 11 17 34 53 85 81 65 85 357 341 314 324 342 31 17 10 24
76 56 52 50 48 42 39 37 37 43 47 39 42 35 29 28 18 18 35 42 45 15 359 0 23 49 73 96 54 2 350 340 322 349 39 16 337 317
84 72 65 65 67 63 57 43 36 35 35 44 45 41 36 30 18 13 28 44 40 15 360 348 8 19 17 9 44 102 337 322 332 353 50 76 321 316
87 84 83 83 76 73 69 62 42 26 37 47 46 36 33 31 30 22 20 27 22 9 346 346 22 63 44 343 323 357 209 309 342 356 350 216 246 278
85 93 92 90 85 81 75 62 47 38 39 38 34 29 31 36 33 25 23 30 22 9 357 351 357 12 191 223 265 312 343 290 297 311 309 328 309 311
86 88 91 94 90 85 76 64 59 50 44 40 33 28 25 37 36 27 24 24 30 19 359 327 304 316 221 66 9 322 319 335 314 217 221 280 319 326
100 94 85 88 91 87 81 74 62 51 43 38 25 20 19 28 28 23 24 21 1 343 324 317 331 1 34 35 311 295 307 324 341 344 306 229 187 214
117 106 97 96 93 91 88 81 74 55 39 31 23 16 20 19 7 11 15 15 3 352 346 337 343 359 356 339 313 307 312 318 328 338 326 325 308 280
Height
1535 1536 1536 1537 1537 1537 1537 1538 1538 1537 1536 1537 1537 1537 1537 1537 1536 1536 1536 1536 1537 1537 1537 1537 1537 1537 1537 1537 1537 1537 1537 1537 1537 1537 1537 1537 1537 1537
1532 1532 1533 1533 1533 1533 1533 1533 1534 1534 1533 1533 1533 1534 1534 1533 1533 1533 1533 1533 1533 1533 1533 1533 1533 1533 1533 1533 1533 1533 1533 1533 1532 1532 1532 1532 1532 1532
1529 1529 1529 1529 1529 1529 1530 1529 1530 1530 1530 1530 1530 1530 1530 1530 1530 1530 1529 1529 1530 1530 1530 1529 1529 1529 1529 1529 1529 1529 1529 1528 1528 1527 1527 1527 1526 1526
1527 1527 1527 1527 1526 1526 1526 1526 1526 1527 1527 1527 1528 1528 1528 1527 1527 1527 1527 1527 1527 1527 1526 1526 1526 1526 1525 1525 1525 1524 1524 1523 1523 1522 1522 1521 1521 1520
1526 1526 1526 1525 1525 1524 1524 1524 1524 1525 1525 1525 1525 1525 1525 1525 1525 1525 1525 1525 1525 1525 1524 1524 1523 1523 1523 1522 1522 1521 1520 1520 1519 1518 1517 1517 1516 1515
1526 1525 1525 1524 1524 1524 1523 1523 1523 1523 1523 1523 1523 1523 1524 1523 1524 1523 1523 1524 1523 1523 1523 1522 1522 1522 1521 1520 1519 1519 1518 1517 1516 1515 1514 1513 1512 1511
1527 1526 1525 1525 1524 1524 1523 1523 1522 1522 1522 1522 1522 1522 1522 1522 1522 1522 1522 1522 1522 1522 1522 1521 1521 1520 1520 1519 1518 1517 1516 1515 1514 1513 1511 1510 1509 1508
1528 1527 1526 1526 1525 1525 1524 1524 1523 1523 1522 1522 1522 1521 1522 1522 1522 1522 1521 1521 1521 1522 1521 1521 1521 1520 1519 1518 1517 1516 1515 1514 1512 1511 1510 1509 1508 1507
1529 1528 1528 1527 1527 1526 1526 1525 1524 1524 1524 1524 1523 1523 1523 1523 1522 1522 1522 1521 1521 1521 1521 1520 1520 1519 1519 1518 1517 1516 1515 1514 1512 1511 1509 1508 1507 1506
1531 1530 1530 1529 1529 1528 1527 1527 1526 1526 1525 1525 1524 1524 1524 1524 1523 1523 1522 1522 1522 1522 1521 1520 1520 1520 1519 1518 1518 1516 1515 1514 1513 1512 1510 1509 1507 1506
1533 1533 1532 1532 1531 1531 1529 1528 1528 1528 1528 1527 1527 1526 1525 1525 1524 1524 1523 1523 1522 1522 1522 1521 1521 1520 1519 1519 1518 1517 1516 1515 1514 1512 1511 1509 1508 1507
1535 1535 1535 1534 1534 1533 1532 1531 1531 1531 1530 1530 1529 1528 1527 1527 1526 1525 1524 1523 1523 1523 1522 1522 1521 1520 1520 1520 1519 1518 1517 1516 1514 1513 1511 1510 1508 1507
1537 1537 1537 1537 1536 1536 1535 1534 1533 1533 1533 1532 1531 1530 1529 1528 1528 1527 1526 1525 1524 1524 1524 1523 1522 1521 1520 1520 1519 1518 1517 1516 1514 1513 1511 1510 1508 1507
1539 1539 1539 1539 1539 1538 1537 1537 1536 1536 1535 1534 1533 1532 1531 1531 1530 1529 1528 1527 1526 1525 1524 1523 1522 1522 1521 1520 1519 1518 1517 1516 1514 1513 1511 1510 1508 1507
1542 1542 1541 1541 1541 1540 1540 1539 1538 1538 1537 1536 1535 1534 1534 1533 1532 1531 1529 1528 1527 1526 1525 1525 1524 1523 1521 1520 1519 1518 1517 1516 1514 1513 1511 1509 1508 1506
1544 1544 1544 1543 1543 1542 1542 1541 1540 1540 1539 1538 1537 1536 1535 1534 1533 1532 1530 1529 1528 1527 1526 1526 1525 1524 1522 1521 1520 1518 1517 1516 1514 1513 1511 1509 1508 1506
1546 1546 1546 1545 1545 1544 1544 1543 1542 1541 1541 1540 1539 1538 1537 1536 1534 1533 1532 1530 1529 1528 1527 1526 1525 1524 1522 1521 1520 1519 1517 1516 1514 1513 1511 1509 1508 1506
1548 1547 1547 1547 1546 1546 1545 1544 1544 1543 1542 1541 1540 1539 1538 1537 1536 1534 1533 1532 1530 1529 1528 1526 1525 1524 1523 1521 1521 1518 1517 1516 1514 1512 1511 1509 1507 1506
1549 1548 1548 1548 1548 1547 1547 1546 1545 1544 1543 1542 1541 1540 1539 1538 1536 1535 1534 1532 1531 1530 1529 1527 1526 1524 1522 1521 1520 1519 1517 1515 1514 1512 1510 1508 1507 1505
1550 1550 1549 1549 1549 1548 1548 1547 1546 1545 1544 1543 1542 1541 1540 1538 1537 1536 1534 1533 1532 1530 1529 1527 1526 1524 1522 1521 1520 1518 1517 1515 1513 1511 1509 1508 1506 1505
1550 1550 1550 1550 1549 1549 1548 1547 1547 1546 1545 1544 1542 1541 1540 1539 1538 1536 1535 1533 1532 1531 1529 1527 1526 1525 1523 1521 1519 1517 1516 1514 1512 1510 1508 1506 1505 1503
1551 1551 1550 1550 1550 1549 1549 1548 1547 1546 1545 1544 1543 1541 1540 1539 1538 1536 1535 1534 1532 1531 1529 1528 1526 1524 1522 1520 1518 1516 1515 1513 1511 1510 1508 1506 1504 1502
1551 1551 1551 1551 1550 1550 1549 1548 1547 1546 1545 1544 1543 1541 1540 1539 1538 1537 1535 1534 1532 1530 1528 1527 1525 1523 1521 1519 1518 1516 1514 1512 1510 1508 1507 1505 1503 1502